TimePDT,TemperatureF,Dew PointF,Humidity,Sea Level PressureIn,VisibilityMPH,Wind Direction,Wind SpeedMPH,Gust SpeedMPH,PrecipitationIn,Events,Conditions,WindDirDegrees,DateUTC
12:15 AM,57.2,51.8,82,30.13,10.0,West,3.5,-,N/A,,Overcast,280,2012-09-19 07:15:00
12:35 AM,57.2,51.8,82,30.14,10.0,West,4.6,-,N/A,,Overcast,280,2012-09-19 07:35:00
12:55 AM,55.4,51.8,88,30.14,10.0,West,4.6,-,N/A,,Overcast,280,2012-09-19 07:55:00
1:15 AM,55.4,51.8,88,30.14,10.0,WNW,3.5,-,N/A,,Overcast,290,2012-09-19 08:15:00
1:35 AM,55.4,51.8,88,30.14,10.0,NW,3.5,-,N/A,,Overcast,320,2012-09-19 08:35:00
1:55 AM,55.4,50.0,82,30.14,10.0,Calm,Calm,-,N/A,,Overcast,0,2012-09-19 08:55:00
2:15 AM,55.4,50.0,82,30.15,10.0,Calm,Calm,-,N/A,,Overcast,0,2012-09-19 09:15:00
2:55 AM,55.4,50.0,82,30.14,10.0,WNW,3.5,-,N/A,,Overcast,300,2012-09-19 09:55:00
3:15 AM,55.4,50.0,82,30.14,10.0,Calm,Calm,-,N/A,,Overcast,0,2012-09-19 10:15:00
3:35 AM,55.4,51.8,88,30.14,10.0,WNW,4.6,-,N/A,,Overcast,290,2012-09-19 10:35:00
3:55 AM,55.4,51.8,88,30.14,10.0,WNW,3.5,-,N/A,,Overcast,300,2012-09-19 10:55:00
4:15 AM,55.4,51.8,88,30.14,7.0,NNW,3.5,-,N/A,,Overcast,330,2012-09-19 11:15:00
4:35 AM,55.4,51.8,88,30.14,4.0,Calm,Calm,-,N/A,,Overcast,0,2012-09-19 11:35:00
4:55 AM,53.6,51.8,94,30.14,4.0,Calm,Calm,-,N/A,,Overcast,0,2012-09-19 11:55:00
5:15 AM,55.4,51.8,88,30.14,10.0,Calm,Calm,-,N/A,,Overcast,0,2012-09-19 12:15:00
5:35 AM,55.4,51.8,88,30.14,10.0,NNW,3.5,-,N/A,,Overcast,340,2012-09-19 12:35:00
6:15 AM,55.4,50.0,82,30.14,9.0,Calm,Calm,-,N/A,,Overcast,0,2012-09-19 13:15:00
6:35 AM,53.6,50.0,88,30.14,10.0,NW,3.5,-,N/A,,Overcast,310,2012-09-19 13:35:00
6:55 AM,53.6,50.0,88,30.14,10.0,Calm,Calm,-,N/A,,Overcast,0,2012-09-19 13:55:00
7:15 AM,53.6,50.0,88,30.14,6.0,WNW,4.6,-,N/A,,Overcast,300,2012-09-19 14:15:00
7:55 AM,53.6,51.8,94,30.15,5.0,NW,3.5,-,N/A,,Overcast,310,2012-09-19 14:55:00
8:15 AM,55.4,51.8,88,30.15,8.0,NNW,4.6,-,N/A,,Overcast,330,2012-09-19 15:15:00
8:35 AM,55.4,51.8,88,30.15,10.0,NNW,6.9,-,N/A,,Overcast,340,2012-09-19 15:35:00
8:55 AM,55.4,50.0,82,30.15,10.0,North,6.9,-,N/A,,Overcast,350,2012-09-19 15:55:00
9:15 AM,55.4,50.0,82,30.15,10.0,North,6.9,-,N/A,,Overcast,360,2012-09-19 16:15:00
9:35 AM,55.4,50.0,82,30.15,10.0,NNW,4.6,-,N/A,,Overcast,330,2012-09-19 16:35:00
9:55 AM,55.4,50.0,82,30.15,10.0,NNW,5.8,-,N/A,,Overcast,330,2012-09-19 16:55:00
10:15 AM,55.4,50.0,82,30.15,10.0,NNW,9.2,-,N/A,,Overcast,340,2012-09-19 17:15:00
10:35 AM,55.4,50.0,82,30.15,10.0,North,6.9,-,N/A,,Overcast,350,2012-09-19 17:35:00
10:55 AM,57.2,50.0,77,30.15,10.0,NNW,9.2,-,N/A,,Overcast,340,2012-09-19 17:55:00
11:15 AM,57.2,50.0,77,30.15,10.0,NNW,6.9,-,N/A,,Overcast,330,2012-09-19 18:15:00
11:35 AM,57.2,50.0,77,30.15,10.0,North,6.9,-,N/A,,Overcast,350,2012-09-19 18:35:00
11:55 AM,57.2,50.0,77,30.15,10.0,NW,5.8,-,N/A,,Overcast,320,2012-09-19 18:55:00
12:15 PM,57.2,51.8,82,30.14,10.0,NNW,8.1,-,N/A,,Overcast,340,2012-09-19 19:15:00
12:35 PM,57.2,51.8,82,30.14,10.0,NW,6.9,-,N/A,,Overcast,310,2012-09-19 19:35:00
12:55 PM,59.0,51.8,77,30.14,10.0,NNW,6.9,-,N/A,,Overcast,340,2012-09-19 19:55:00
1:15 PM,60.8,51.8,72,30.13,10.0,NNE,8.1,-,N/A,,Overcast,20,2012-09-19 20:15:00
1:35 PM,60.8,51.8,72,30.13,10.0,West,3.5,-,N/A,,Overcast,280,2012-09-19 20:35:00
1:55 PM,62.6,51.8,68,30.12,10.0,North,3.5,-,N/A,,Overcast,350,2012-09-19 20:55:00
2:15 PM,62.6,51.8,68,30.12,10.0,WNW,5.8,-,N/A,,Overcast,290,2012-09-19 21:15:00
2:35 PM,62.6,53.6,72,30.11,10.0,NNW,8.1,-,N/A,,Mostly Cloudy,330,2012-09-19 21:35:00
2:55 PM,62.6,53.6,72,30.11,10.0,WNW,4.6,-,N/A,,Mostly Cloudy,290,2012-09-19 21:55:00
3:15 PM,64.4,53.6,68,30.10,10.0,NNW,5.8,-,N/A,,Partly Cloudy,330,2012-09-19 22:15:00
3:35 PM,64.4,53.6,68,30.09,10.0,NNW,4.6,-,N/A,,Clear,330,2012-09-19 22:35:00
3:55 PM,66.2,53.6,64,30.09,10.0,NW,5.8,-,N/A,,Clear,320,2012-09-19 22:55:00
4:15 PM,66.2,53.6,64,30.09,10.0,NW,4.6,-,N/A,,Clear,320,2012-09-19 23:15:00
4:35 PM,66.2,53.6,64,30.09,10.0,WNW,6.9,-,N/A,,Clear,290,2012-09-19 23:35:00
4:55 PM,64.4,53.6,68,30.09,10.0,NW,5.8,-,N/A,,Clear,310,2012-09-19 23:55:00
5:15 PM,64.4,53.6,68,30.09,10.0,NW,5.8,-,N/A,,Clear,320,2012-09-20 00:15:00
5:35 PM,64.4,53.6,68,30.09,10.0,WNW,6.9,-,N/A,,Clear,300,2012-09-20 00:35:00
5:55 PM,62.6,53.6,72,30.09,10.0,NW,5.8,-,N/A,,Clear,320,2012-09-20 00:55:00
6:15 PM,62.6,53.6,72,30.09,10.0,WNW,5.8,-,N/A,,Clear,290,2012-09-20 01:15:00
6:35 PM,60.8,51.8,72,30.09,10.0,NW,4.6,-,N/A,,Clear,310,2012-09-20 01:35:00
6:55 PM,60.8,51.8,72,30.09,10.0,NNW,3.5,-,N/A,,Mostly Cloudy,330,2012-09-20 01:55:00
7:15 PM,59.0,51.8,77,30.09,10.0,NNW,3.5,-,N/A,,Overcast,330,2012-09-20 02:15:00
7:35 PM,59.0,51.8,77,30.10,10.0,NW,4.6,-,N/A,,Overcast,320,2012-09-20 02:35:00
7:55 PM,59.0,51.8,77,30.10,10.0,NNW,3.5,-,N/A,,Overcast,330,2012-09-20 02:55:00
8:15 PM,57.2,51.8,82,30.10,10.0,WNW,3.5,-,N/A,,Overcast,300,2012-09-20 03:15:00
8:35 PM,57.2,51.8,82,30.10,10.0,NNW,3.5,-,N/A,,Overcast,340,2012-09-20 03:35:00
8:55 PM,57.2,51.8,82,30.11,10.0,WNW,3.5,-,N/A,,Overcast,300,2012-09-20 03:55:00
9:35 PM,57.2,51.8,82,30.11,10.0,Calm,Calm,-,N/A,,Overcast,0,2012-09-20 04:35:00
9:55 PM,57.2,51.8,82,30.10,10.0,Calm,Calm,-,N/A,,Overcast,0,2012-09-20 04:55:00
10:15 PM,57.2,51.8,82,30.11,10.0,NNW,3.5,-,N/A,,Overcast,340,2012-09-20 05:15:00
10:35 PM,55.4,51.8,88,30.11,10.0,NW,5.8,-,N/A,,Overcast,320,2012-09-20 05:35:00
10:55 PM,55.4,51.8,88,30.11,10.0,Calm,Calm,-,N/A,,Overcast,0,2012-09-20 05:55:00
11:15 PM,55.4,51.8,88,30.12,10.0,WNW,3.5,-,N/A,,Overcast,290,2012-09-20 06:15:00
11:35 PM,55.4,51.8,88,30.12,10.0,Calm,Calm,-,N/A,,Overcast,0,2012-09-20 06:35:00
11:55 PM,55.4,51.8,88,30.12,10.0,NW,3.5,-,N/A,,Overcast,310,2012-09-20 06:55:00